Wind_Speed
7 6 6 7 7 8 9 9 8 9 9 8 8 8 8 7 7 7 7 7 7 6 6 7 8 7 8 8 8 8 8 8 8 8 7 7 6 6 6 6 6 6 6
7 7 7 7 8 8 8 9 9 9 8 8 8 8 7 7 7 7 7 7 7 6 6 6 7 7 8 8 8 7 7 7 7 7 6 6 6 6 6 6 6 6 5
7 7 8 8 8 8 9 9 9 8 8 8 8 7 7 7 7 7 7 7 7 6 6 6 6 6 7 7 7 7 6 6 6 6 6 6 6 5 5 5 5 5 5
7 7 7 8 8 8 8 8 8 8 8 7 7 7 7 7 7 7 7 6 6 6 6 6 6 6 6 6 6 6 6 6 6 6 6 6 5 5 5 5 5 4 4
7 7 8 8 7 7 7 7 7 7 7 7 7 7 7 6 6 6 6 6 6 6 6 6 6 6 6 6 6 6 6 6 6 6 5 5 5 5 5 4 4 4 3
7 8 8 8 8 7 7 7 7 7 7 7 7 7 6 6 6 6 6 6 6 6 6 6 6 6 6 6 6 6 6 6 5 5 4 4 4 4 4 4 3 3 3
8 8 9 8 8 8 7 7 7 6 6 6 6 6 6 6 7 6 6 6 6 6 6 6 6 6 5 5 6 5 5 5 5 5 4 4 3 3 3 3 3 3 3
10 10 9 9 8 8 8 7 7 6 6 5 5 6 6 6 6 6 5 6 6 6 6 5 5 5 5 5 5 5 5 5 5 4 4 4 3 3 3 3 2 3 3
11 10 10 9 8 8 7 7 6 6 5 5 5 5 5 5 5 5 5 5 5 5 5 5 4 4 4 4 4 4 4 4 4 4 4 4 4 3 3 3 3 3 3
11 11 11 10 9 8 7 7 6 6 5 5 4 4 5 5 5 5 5 5 5 5 5 4 4 4 4 3 3 3 4 3 3 3 3 3 3 3 3 3 3 2 2
12 12 11 11 9 8 8 7 6 5 5 4 4 4 5 5 5 5 5 5 5 4 4 4 4 4 3 3 3 3 3 2 2 2 2 2 2 2 2 2 2 1 1
13 12 12 11 10 9 8 7 6 5 5 5 4 3 4 5 5 4 4 4 4 4 3 3 3 4 3 3 3 3 2 2 2 2 2 2 2 2 2 1 1 0 0
13 12 12 11 10 9 8 8 7 6 6 5 5 4 4 4 4 4 4 4 4 3 3 2 3 3 3 3 3 2 2 2 2 1 1 1 1 1 1 1 0 0 1
13 12 12 12 11 10 9 8 7 6 6 5 5 4 4 4 3 4 4 4 4 3 2 2 2 2 2 2 2 2 1 1 1 1 1 1 1 1 0 0 1 1 1
13 12 12 11 11 10 9 8 7 6 5 5 4 4 4 3 3 3 3 3 3 3 3 2 2 2 1 1 1 1 0 0 0 0 0 0 0 1 1 1 2 2 3
13 12 11 11 10 10 9 8 6 6 6 5 4 4 4 3 3 3 2 2 3 3 3 2 2 2 1 1 1 1 1 1 0 1 1 2 2 3 3 3 3 4 4
14 13 12 11 10 10 10 9 7 6 5 4 4 4 3 2 2 2 2 1 2 3 3 2 2 2 1 1 2 2 2 1 1 2 3 3 4 4 4 4 5 5 5
14 13 12 12 11 10 10 10 8 7 6 5 4 3 2 2 2 1 1 2 2 3 3 3 2 2 2 2 2 2 3 3 3 4 4 5 5 5 5 5 6 6 7
14 13 12 12 11 10 10 10 9 8 7 5 5 4 3 2 1 0 1 1 2 2 3 3 3 3 3 3 3 4 4 4 5 5 5 6 6 7 7 7 7 8 8
15 14 13 12 12 11 10 10 10 9 8 6 6 5 4 3 2 1 0 1 1 2 3 3 3 3 4 4 4 4 5 6 6 7 7 8 8 8 8 9 9 10 10
15 14 14 13 12 12 11 11 10 9 9 8 6 6 5 4 2 2 1 1 2 2 2 3 4 4 5 5 5 5 6 7 7 8 8 9 9 9 10 10 11 11 11
15 14 13 13 12 12 12 11 10 10 10 10 9 7 6 5 4 3 2 2 2 2 3 3 4 5 5 5 6 6 7 7 7 8 9 9 9 11 11 12 12 12 13
15 15 14 13 12 12 12 12 12 11 11 11 10 9 8 6 5 4 3 3 3 3 4 4 5 5 6 6 6 7 7 8 8 8 9 9 10 11 12 12 12 13 15
14 14 13 13 12 12 13 13 12 11 11 11 10 9 8 7 6 5 5 5 4 5 5 5 5 5 6 7 7 8 8 8 9 9 9 10 10 11 12 12 13 14 16
13 13 13 13 12 12 12 12 12 12 11 11 10 10 9 8 7 6 5 5 6 6 6 6 6 6 7 8 9 9 9 10 10 10 11 11 11 12 13 13 14 16 16
12 12 12 13 12 12 12 12 12 12 12 12 11 10 10 10 9 7 7 6 6 7 7 7 8 8 9 9 10 11 11 11 11 11 12 12 12 13 14 14 15 15 16
Wind_Direction
49 48 58 65 71 73 75 75 75 75 74 73 73 72 71 76 81 87 90 94 97 101 108 116 125 108 106 110 114 118 116 112 114 120 117 107 102 105 110 109 108 112 111
52 56 63 68 70 72 75 78 78 78 78 76 74 74 75 77 78 85 93 96 97 98 99 103 104 98 98 101 107 115 116 110 119 121 118 109 109 109 112 114 111 115 115
62 66 71 74 74 74 76 79 81 81 81 80 77 76 78 82 85 89 91 93 96 97 96 96 97 94 98 98 107 118 116 105 113 117 118 115 110 110 114 115 117 122 123
70 75 80 82 81 79 79 79 80 81 82 81 80 79 83 86 88 89 91 93 95 93 92 91 94 95 94 95 102 107 108 107 111 115 120 116 114 117 118 117 118 122 122
72 76 81 82 85 83 80 80 80 80 80 81 83 82 86 90 91 89 88 92 94 94 93 91 91 97 95 96 98 98 101 109 113 113 117 117 117 116 115 117 116 114 115
71 74 77 77 79 81 79 80 82 82 81 82 83 83 88 94 97 96 94 98 97 95 95 94 95 95 96 94 93 93 99 107 111 106 106 111 116 114 115 113 110 105 106
69 70 72 71 72 74 75 78 80 83 82 83 86 87 90 95 99 100 99 95 95 97 97 97 99 100 98 96 92 91 97 105 107 106 102 106 111 110 112 112 116 104 108
66 67 68 70 69 71 75 79 80 82 83 84 85 90 93 99 100 99 97 97 101 102 101 103 103 105 102 99 98 95 96 99 101 103 103 102 109 114 109 105 102 102 115
63 62 63 65 69 69 73 78 80 81 85 88 90 94 98 101 100 102 104 105 108 108 106 108 109 108 107 105 100 98 99 98 95 102 102 96 99 106 101 94 95 95 105
60 58 57 62 67 67 69 74 78 80 82 86 93 102 107 106 105 108 109 111 113 111 109 109 115 114 107 106 103 105 102 97 96 97 100 97 99 101 94 92 91 96 98
60 58 56 58 62 66 68 71 73 75 80 82 89 103 115 119 118 118 114 117 116 112 109 114 123 121 110 109 107 113 110 108 105 100 106 102 105 104 95 88 86 96 90
58 56 56 58 60 63 64 67 70 75 80 79 81 99 118 129 128 129 125 125 122 119 119 121 122 119 119 122 118 116 120 117 103 98 105 115 119 110 99 92 100 103 187
54 53 53 54 56 59 64 67 70 75 80 79 82 95 114 127 135 133 131 128 128 127 131 131 133 132 137 140 132 133 135 123 109 103 113 140 131 117 108 101 84 310 309
51 52 53 52 52 55 62 65 64 69 75 78 84 98 112 122 128 134 135 136 132 130 128 137 140 149 151 148 139 140 138 107 125 118 120 134 143 174 193 221 257 280 291
48 50 52 52 52 51 55 61 62 67 72 74 82 95 102 113 127 135 143 146 147 140 134 145 150 161 162 135 141 128 122 47 77 198 210 200 226 238 255 269 267 271 284
47 48 49 50 51 49 51 55 62 67 70 67 76 91 99 106 125 139 136 155 163 152 146 144 158 161 134 172 212 217 216 249 247 261 258 266 263 263 267 268 270 274 280
46 46 47 49 50 48 49 56 62 61 59 61 67 77 91 105 129 141 145 164 172 177 177 180 180 185 224 247 250 240 239 255 254 261 263 266 270 274 273 275 277 275 278
45 47 49 49 49 49 50 51 58 58 58 63 63 69 82 85 100 148 180 195 192 198 201 209 218 220 238 258 266 259 254 258 264 269 271 270 269 271 274 275 278 279 279
45 46 46 47 50 51 51 49 50 54 57 59 58 59 66 71 75 37 217 194 197 207 211 223 236 247 257 267 273 272 269 268 267 272 274 274 274 273 272 273 279 282 284
45 47 49 52 52 52 49 49 48 49 51 53 54 51 47 50 40 25 273 215 208 213 213 224 237 256 266 266 266 270 275 280 276 271 274 275 276 275 273 274 277 280 286
46 47 50 52 51 51 49 46 44 46 47 47 43 37 34 37 27 13 357 305 270 248 248 251 261 265 269 268 268 274 277 283 280 274 273 275 274 275 278 277 279 280 284
44 44 46 46 46 47 47 45 43 44 44 43 42 39 35 30 20 15 0 334 305 276 269 269 272 270 274 271 272 275 279 281 284 280 279 281 279 278 280 281 280 282 284
43 44 44 42 42 44 44 44 44 44 41 38 37 38 35 28 15 359 347 321 310 296 287 286 285 275 275 275 276 276 282 284 285 282 284 287 283 280 279 283 284 284 286
41 41 40 39 40 40 40 40 40 39 36 33 31 27 22 12 4 353 340 327 321 312 303 297 298 289 282 281 281 279 281 284 286 287 288 289 289 286 281 279 281 282 286
38 39 37 37 38 37 37 37 36 35 32 30 27 21 14 5 354 344 336 323 312 304 300 295 295 292 288 285 282 281 281 284 287 290 291 292 291 289 288 285 285 284 285
37 38 37 36 37 36 34 32 31 29 26 24 20 15 8 2 356 351 340 328 319 311 302 294 294 292 290 286 282 281 282 283 284 287 290 290 291 292 291 287 287 289 288
Height
5873 5872 5872 5871 5871 5871 5871 5871 5871 5871 5872 5872 5872 5872 5873 5873 5873 5873 5874 5874 5875 5875 5875 5876 5876 5877 5878 5879 5879 5880 5881 5882 5883 5883 5884 5885 5885 5886 5886 5887 5888 5888 5889
5874 5873 5873 5872 5872 5872 5872 5872 5872 5872 5873 5873 5873 5874 5874 5874 5875 5875 5875 5876 5876 5877 5877 5878 5879 5879 5880 5880 5881 5882 5882 5883 5884 5885 5885 5886 5886 5887 5887 5888 5889 5889 5890
5875 5874 5874 5873 5873 5873 5873 5873 5873 5874 5874 5874 5875 5875 5875 5876 5876 5877 5877 5877 5878 5878 5879 5879 5880 5881 5881 5882 5882 5883 5884 5884 5885 5885 5886 5887 5887 5888 5889 5889 5890 5890 5891
5876 5875 5875 5874 5874 5874 5874 5874 5874 5875 5875 5875 5876 5876 5876 5877 5877 5878 5878 5879 5879 5880 5881 5881 5882 5882 5883 5883 5883 5884 5885 5885 5886 5886 5887 5888 5889 5889 5890 5890 5890 5891 5891
5877 5877 5876 5875 5875 5875 5875 5875 5875 5876 5876 5876 5877 5877 5877 5878 5878 5879 5880 5880 5881 5881 5882 5882 5883 5883 5884 5884 5885 5885 5886 5886 5887 5888 5888 5889 5890 5890 5890 5891 5891 5892 5892
5878 5878 5877 5876 5876 5876 5876 5876 5876 5877 5877 5877 5878 5878 5878 5879 5879 5880 5881 5881 5882 5882 5883 5884 5884 5885 5885 5885 5886 5886 5887 5888 5888 5889 5889 5890 5890 5891 5891 5891 5892 5892 5893
5880 5879 5878 5877 5877 5876 5876 5877 5877 5877 5878 5878 5879 5879 5879 5880 5880 5881 5882 5882 5883 5883 5884 5885 5885 5886 5886 5887 5887 5888 5888 5889 5889 5890 5890 5891 5891 5892 5892 5892 5893 5893 5893
5881 5880 5878 5878 5878 5877 5877 5877 5878 5878 5879 5879 5879 5880 5880 5881 5881 5882 5883 5883 5884 5884 5885 5886 5886 5887 5887 5888 5888 5889 5889 5890 5890 5890 5891 5891 5892 5892 5893 5893 5893 5893 5894
5882 5881 5880 5879 5879 5879 5879 5879 5879 5879 5879 5880 5880 5881 5881 5882 5882 5883 5883 5884 5884 5885 5886 5886 5887 5888 5888 5889 5889 5889 5890 5890 5891 5891 5892 5892 5892 5893 5893 5893 5894 5894 5894
5884 5883 5882 5881 5881 5880 5880 5880 5880 5880 5880 5881 5881 5881 5882 5882 5883 5884 5884 5885 5885 5886 5887 5887 5888 5888 5889 5889 5890 5890 5891 5891 5892 5892 5892 5893 5893 5893 5894 5894 5894 5895 5895
5885 5884 5883 5883 5882 5881 5881 5881 5881 5881 5881 5882 5882 5882 5883 5883 5884 5884 5885 5886 5886 5887 5888 5888 5889 5889 5890 5890 5891 5891 5892 5892 5892 5893 5893 5893 5894 5894 5894 5895 5895 5895 5895
5887 5886 5885 5884 5883 5883 5882 5882 5882 5882 5882 5882 5882 5883 5883 5884 5885 5885 5886 5886 5887 5888 5888 5889 5889 5890 5890 5891 5891 5892 5892 5893 5893 5893 5893 5894 5894 5894 5894 5895 5895 5895 5895
5889 5887 5887 5886 5885 5884 5884 5883 5883 5883 5883 5883 5883 5883 5884 5885 5886 5886 5887 5887 5888 5888 5889 5889 5890 5890 5891 5891 5892 5892 5893 5893 5893 5893 5894 5894 5894 5894 5895 5895 5895 5895 5895
5890 5889 5888 5887 5886 5885 5885 5884 5884 5884 5884 5884 5884 5884 5885 5886 5887 5887 5888 5888 5889 5889 5889 5890 5890 5891 5891 5892 5892 5892 5893 5893 5893 5893 5894 5894 5894 5894 5895 5895 5895 5895 5895
5892 5891 5890 5889 5888 5887 5886 5885 5885 5885 5885 5885 5885 5885 5885 5886 5887 5888 5888 5889 5889 5889 5890 5890 5891 5891 5892 5892 5892 5892 5893 5893 5893 5893 5894 5894 5894 5894 5894 5894 5894 5894 5894
5893 5892 5891 5890 5889 5888 5887 5887 5886 5886 5885 5886 5886 5886 5886 5887 5887 5888 5888 5889 5889 5890 5890 5890 5891 5891 5892 5892 5892 5892 5893 5893 5893 5893 5893 5893 5894 5894 5894 5894 5894 5894 5893
5895 5894 5893 5892 5891 5890 5889 5888 5887 5887 5886 5886 5886 5887 5887 5887 5888 5888 5889 5889 5889 5890 5890 5890 5891 5891 5892 5892 5892 5892 5892 5892 5892 5893 5893 5893 5893 5893 5893 5893 5893 5893 5892
5897 5895 5894 5893 5892 5891 5890 5889 5888 5888 5887 5887 5887 5887 5887 5888 5888 5888 5888 5889 5889 5889 5890 5890 5891 5891 5891 5891 5892 5892 5892 5892 5892 5892 5892 5892 5892 5892 5892 5892 5892 5892 5891
5899 5898 5896 5895 5894 5893 5892 5891 5890 5889 5888 5888 5888 5888 5888 5888 5888 5888 5888 5888 5889 5889 5889 5890 5890 5891 5891 5891 5891 5891 5891 5891 5891 5891 5890 5890 5890 5891 5891 5891 5890 5890 5890
5901 5899 5898 5897 5896 5895 5894 5893 5891 5890 5890 5889 5889 5889 5888 5888 5888 5888 5888 5888 5888 5889 5889 5889 5890 5890 5890 5890 5890 5890 5890 5890 5889 5889 5889 5889 5889 5888 5889 5888 5888 5888 5888
5903 5902 5900 5899 5898 5897 5895 5894 5893 5892 5891 5890 5890 5889 5889 5889 5888 5888 5888 5888 5888 5888 5889 5889 5889 5889 5889 5889 5889 5889 5888 5888 5888 5887 5887 5887 5887 5886 5886 5886 5886 5885 5885
5905 5904 5902 5901 5900 5898 5897 5896 5894 5893 5892 5892 5891 5890 5889 5889 5889 5888 5888 5888 5888 5888 5888 5888 5888 5888 5887 5887 5887 5887 5887 5887 5886 5886 5885 5885 5885 5884 5884 5883 5883 5883 5882
5907 5905 5904 5903 5902 5900 5899 5897 5896 5895 5894 5893 5892 5891 5890 5889 5889 5889 5888 5888 5887 5887 5887 5887 5886 5886 5886 5886 5886 5886 5886 5885 5885 5884 5883 5883 5882 5881 5881 5880 5880 5879 5879
5909 5907 5906 5904 5903 5902 5900 5899 5898 5896 5895 5894 5893 5891 5891 5890 5889 5889 5888 5887 5887 5886 5886 5885 5885 5885 5885 5885 5884 5884 5884 5883 5883 5882 5882 5881 5880 5879 5878 5878 5877 5876 5875
5911 5909 5907 5906 5904 5903 5902 5900 5899 5898 5896 5895 5894 5892 5891 5890 5889 5888 5887 5886 5886 5885 5884 5884 5884 5883 5883 5883 5882 5882 5881 5881 5880 5880 5879 5879 5878 5877 5876 5875 5874 5873 5872
5912 5911 5909 5907 5906 5904 5903 5902 5900 5899 5897 5896 5894 5893 5891 5889 5888 5887 5886 5885 5884 5883 5883 5882 5882 5881 5881 5880 5880 5879 5879 5879 5878 5877 5877 5876 5875 5874 5873 5871 5870 5869 5868